EHI
0 0 0 0 0 0 0 0 0 0 0 0 0 0 0 0 0 0 0 0 0 0 0 0 0 0 0 0 0 0 0 0 0 0 0 0 0 0 0 0 0 0 0
0 0 0 0 0 0 0 0 0 0 0 0 0 0 0 0 0 0 0 0 0 0 0 0 0 0 0 0 0 0 0 0 0 0 0 0 0 0 0 0 0 0 0
0 0 0 0 0 0 0 0 0 0 0 0 0 0 0 0 0 0 0 0 0 0 0 0 0 0 0 0 0 0 0 0 0 0 0 0 0 0 0 0 0 0 0
0 0 0 0 0 0 0 0 0 0 0 0 0 0 0 0 0 0 0 0 0 0 0 0 0 0 0 0 0 0 0 0 0 0 0 0 0 0 0 0 0 0 0
0 0 0 0 0 0 0 0 0 0 0 0 0 0 0 0 0 0 0 0 0 0 0 0 0 0 0 0 0 0 0 0 0 0 0 0 0 0 0 0 0 0 0
0 0 0 0 0 0 0 0 0 0 0 0 0 0 0 0 0 0 0 0 0 0 0 0 0 0 0 0 0 0 0 0 0 0 0 0 0 0 0 0 0 0 0
0 0 0 0 0 0 0 0 0 0 0 0 0 0 0 0 0 0 0 0 0 0 0 0 0 0 0 0 0 0 0 0 0 0 0 0 0 0 0 0 0 0 0
0 0 0 0 0 0 0 0 0 0 0 0 0 0 0 0 0 0 0 0 0 0 0 0 0 0 0 0 0 0 0 0 0 0 0 0 0 0 0 0 0 0 0
0 0 0 0 0 0 0 0 0 0 0 0 0 0 0 0 0 0 0 0 0 0 0 0 0 0 0 0 0 0 0 0 0 0 0 0 0 0 0 0 0 0 0
0 0 0 0 0 0 0 0 0 0 0 0 0 0 0 0 0 0 0 0 0 0 0 0 0 0 0 0 0 0 0 0 0 0 0 0 0 0 0 0 0 0 0
0 0 0 0 0 0 0 0 0 0 0 0 0 0 0 0 0 0 0 0 0 0 0 0 0 0 0 0 0 0 0 0 0 0 0 0 0 0 0 0 0 0 0
0 0 0 0 0 0 0 0 0 0 0 0 0 0 0 0 0 0 0 0 0 0 0 0 0 0 0 0 0 0 0 0 0 0 0 0 0 0 0 0 0 0 0
0 0 0 0 0 0 0 0 0 0 0 0 0 0 0 0 0 0 0 0 0 0 0 0 0 0 0 0 0 0 0 0 0 0 0 0 0 0 0 0 0 0 0
0 0 0 0 0 0 0 0 0 0 0 0 0 0 0 0 0 0 0 0 0 0 0 0 0 0 0 0 0 0 0 0 0 0 0 0 0 0 0 0 0 0 0
0 0 0 0 0 0 0 0 0 0 0 0 0 0 0 0 0 0 0 0 0 0 0 0 0 0 0 0 0 0 0 0 0 0 0 0 0 0 0 0 0 0 0
0 0 0 0 0 0 0 0 0 0 0 0 0 0 0 0 0 0 0 0 0 0 0 0 0 0 0 0 0 0 0 0 0 0 0 0 0 0 0 0 0 0 0
0 0 0 0 0 0 0 0 0 0 0 0 0 0 0 0 0 0 0 0 0 0 0 0 0 0 0 0 0 0 0 0 0 0 0 0 0 0 0 0 0 0 0
0 0 0 0 0 0 0 0 0 0 0 0 0 0 0 0 0 0 0 0 0 0 0 0 0 0 0 0 0 0 0 0 0 0 0 0 0 0 0 0 0 0 0
0 0 0 0 0 0 0 0 0 0 0 0 0 0 0 0 0 0 0 0 0 0 0 0 0 0 0 0 0 0 0 0 0 0 0 0 0 0 0 0 0 0 0
0 0 0 0 0 0 0 0 0 0 0 0 0 0 0 0 0 0 0 0 0 0 0 0 0 0 0 0 0 0 0 0 0 0 0 0 0 0 0 0 0 0 0
0 0 0 0 0 0 0 0 0 0 0 0 0 0 0 0 0 0 0 0 0 0 0 0 0 0 0 0 0 0 0 0 0 0 0 0 0 0 0 0 0 0 0
0 0 0 0 0 0 0 0 0 0 0 0 0 0 0 0 0 0 0 0 0 0 0 0 0 0 0 0 0 0 0 0 0 0 0 0 0 0 0 0 0 0 0
0 0 0 0 0 0 0 0 0 0 0 0 0 0 0 0 0 0 0 0 0 0 0 0 0 0 0 0 0 0 0 0 0 0 0 0 0 0 0 0 0 0 0
0 0 0 0 0 0 0 0 0 0 0 0 0 0 0 0 0 0 0 0 0 0 0 0 0 0 0 0 0 0 0 0 0 0 0 0 0 0 0 0 0 0 0
0 0 0 0 0 0 0 0 0 0 0 0 0 0 0 0 0 0 0 0 0 0 0 0 0 0 0 0 0 0 0 0 0 0 0 0 0 0 0 0 0 0 0
0 0 0 0 0 0 0 0 0 0 0 0 0 0 0 0 0 0 0 0 0 0 0 0 0 0 0 0 0 0 0 0 0 0 0 0 0 0 0 0 0 0 0
Wind_Speed
4 4 5 6 6 7 7 8 9 10 11 12 12 13 14 14 14 14 15 16 17 17 16 16 18 17 14 13 13 13 13 13 18 20 16 14 17 16 14 14 15 16 15
4 5 6 7 7 8 9 10 10 11 12 12 13 14 14 15 15 16 17 17 17 18 18 17 18 15 18 15 14 15 14 15 16 22 19 14 16 15 14 15 14 13 14
5 6 8 8 9 10 11 11 12 12 13 13 14 15 15 15 15 16 17 18 18 18 18 17 18 18 18 15 16 15 13 13 14 17 19 14 12 11 13 14 16 15 15
6 7 9 9 10 11 12 12 13 13 14 14 15 15 15 13 13 15 16 17 17 18 18 18 18 18 18 18 16 16 14 14 14 15 16 14 13 12 11 11 13 13 13
7 8 9 10 11 11 12 13 13 14 14 15 15 16 16 13 10 11 13 15 16 18 18 18 18 21 24 21 16 14 13 13 13 14 15 13 12 10 10 10 12 11 12
8 10 10 10 11 12 13 14 14 15 15 15 15 16 17 13 18 24 21 18 17 16 16 16 17 19 23 27 29 28 23 16 14 13 13 14 14 14 11 10 11 11 10
10 11 11 11 12 13 14 14 15 16 16 16 16 17 18 19 23 25 25 20 19 17 17 16 14 14 20 14 18 24 24 27 26 17 15 15 15 13 12 13 12 12 12
11 12 11 11 13 14 15 15 16 15 15 15 16 17 18 19 23 25 25 20 17 17 17 17 17 16 15 15 13 14 15 16 18 14 12 13 14 13 11 11 11 12 11
12 12 12 12 13 14 15 16 16 16 16 16 16 17 18 19 22 23 24 15 14 17 16 16 17 17 21 25 17 14 15 13 17 23 23 21 23 23 17 9 9 9 10
12 13 14 14 14 16 17 17 16 15 16 16 16 16 18 19 21 23 24 12 14 14 14 14 19 21 23 25 17 14 15 13 12 12 14 16 15 15 18 10 8 9 8
13 14 14 15 15 16 16 15 16 15 16 16 17 16 17 18 20 22 23 13 13 13 12 11 11 21 24 25 22 15 17 16 12 11 10 9 8 7 8 8 8 8 9
13 14 15 15 14 13 15 15 15 16 17 16 16 16 13 15 17 19 23 23 21 15 13 12 13 23 25 26 20 19 22 19 9 8 8 8 7 8 7 7 7 8 7
14 15 16 16 14 14 14 15 15 13 12 13 13 13 13 12 14 22 23 24 25 17 13 20 24 26 24 18 19 22 17 10 8 8 8 7 7 6 5 4 6 6 7
15 16 15 15 15 14 11 11 12 12 12 13 13 14 14 14 13 12 13 14 17 16 13 17 23 22 17 16 16 12 8 8 7 7 7 7 5 5 5 5 5 6 6
16 15 15 13 14 13 12 11 13 13 14 16 14 14 15 15 17 25 21 15 14 14 16 11 10 9 9 8 8 7 7 7 7 6 6 6 5 5 5 5 5 6 6
14 14 12 11 11 12 13 13 14 17 22 24 25 23 18 22 27 29 28 27 27 25 18 10 10 9 9 9 8 8 7 6 6 6 5 5 5 5 5 5 5 6 6
14 14 11 11 12 12 12 13 15 15 18 22 23 24 24 26 27 27 27 26 24 21 11 9 9 9 9 8 8 7 7 6 5 5 5 5 5 5 5 5 5 6 6
14 13 13 11 11 12 12 13 13 15 15 13 16 22 24 25 25 25 25 20 13 11 8 9 9 9 8 8 7 7 6 5 4 5 5 5 4 5 5 5 5 6 6
13 10 10 11 11 12 12 13 13 15 14 15 14 15 19 21 23 22 19 10 10 10 9 9 9 8 8 8 7 6 6 5 5 4 4 4 4 5 5 5 5 7 7
11 14 14 12 12 12 12 12 13 13 14 14 14 13 13 14 13 12 11 10 9 9 9 9 9 8 8 7 7 6 5 5 4 4 4 4 4 4 5 6 5 6 6
11 12 16 13 11 12 12 12 13 13 13 13 13 15 20 14 12 12 11 10 9 9 10 9 9 8 7 6 6 6 6 5 4 4 4 4 4 4 5 5 5 6 6
10 11 11 11 11 11 12 12 13 13 14 15 13 14 20 13 11 11 10 10 10 9 9 9 8 7 7 6 6 6 5 5 4 4 4 4 4 4 5 5 5 6 6
11 12 12 12 12 15 14 12 12 13 13 13 13 13 12 11 11 11 11 10 9 9 8 8 8 7 6 5 5 5 5 5 4 4 4 4 4 5 5 6 7 7 8
12 12 13 12 12 12 12 13 12 13 13 13 13 12 12 11 11 12 11 10 9 9 8 7 7 8 9 7 5 5 5 5 5 4 6 6 5 5 6 6 7 9 8
11 12 12 12 12 12 12 13 13 13 13 13 12 12 12 12 11 11 10 9 10 9 9 9 7 7 8 8 7 6 7 8 8 5 5 5 6 7 7 8 7 8 9
11 12 12 11 11 11 12 12 12 13 13 12 12 12 12 12 11 11 10 9 8 8 8 7 7 7 8 7 7 8 9 9 9 8 6 5 6 6 7 7 9 9 10
Wind_Direction
353 339 325 323 317 309 303 303 303 300 298 296 295 294 292 290 289 286 282 281 279 277 273 270 268 268 267 265 262 258 254 252 263 274 273 272 269 265 260 259 261 262 259
340 326 321 316 311 306 305 304 303 300 298 296 294 291 289 289 288 288 287 285 282 280 278 275 273 272 268 266 263 261 258 254 257 269 275 275 270 267 261 259 260 261 261
325 317 314 311 310 307 306 304 303 300 297 295 293 291 290 288 287 286 287 286 284 282 281 278 275 273 271 268 266 263 261 259 256 262 271 274 272 266 262 256 256 257 260
314 311 309 309 308 306 304 302 300 298 296 295 294 291 289 284 280 281 283 283 282 280 277 275 274 270 269 269 267 265 264 262 259 260 266 268 266 262 254 253 253 250 252
307 305 304 304 303 301 299 299 298 296 294 293 292 291 289 286 273 272 273 274 274 275 275 272 270 268 266 267 264 261 257 257 257 257 260 263 260 254 246 243 249 254 254
300 299 301 299 299 299 299 300 298 296 295 294 292 291 290 286 286 289 289 287 284 281 279 277 273 273 271 270 271 271 267 261 259 257 261 260 261 256 249 241 243 247 251
295 296 297 298 298 298 299 298 297 297 296 295 293 292 290 291 292 294 294 293 289 286 285 283 281 277 278 273 274 276 277 276 271 268 266 265 267 261 253 244 238 238 243
293 296 297 297 296 297 298 298 298 299 298 296 295 295 294 293 296 297 299 295 289 286 284 283 282 281 279 277 268 265 264 265 266 268 262 262 265 265 251 245 245 244 247
294 297 299 298 296 297 298 299 301 300 298 297 297 296 295 295 297 299 299 295 289 288 286 283 282 281 280 281 278 272 270 267 267 264 261 261 261 260 250 236 229 231 237
298 299 300 298 297 296 298 300 300 298 297 298 295 295 295 295 297 299 299 293 291 290 287 283 282 281 281 283 280 276 275 273 268 266 264 265 266 268 263 245 227 227 230
299 298 297 297 296 297 298 298 299 298 297 297 297 296 296 295 298 298 298 295 290 291 289 287 283 285 287 287 285 279 275 276 269 264 261 256 248 241 243 236 222 222 224
299 297 297 298 299 297 297 298 299 300 300 301 301 301 299 298 298 299 300 299 299 296 293 290 287 291 291 291 289 284 284 287 279 269 265 257 247 239 232 224 217 219 223
300 298 299 300 299 297 297 300 301 300 299 300 300 300 301 301 301 302 303 303 301 297 289 290 293 295 297 295 289 288 288 282 274 269 264 257 250 242 227 215 209 213 217
299 301 301 301 300 300 298 296 296 298 298 298 299 300 301 302 302 303 302 302 299 297 294 293 295 293 290 286 287 286 279 272 268 266 267 265 253 228 217 210 207 199 209
301 301 301 299 299 301 299 295 294 290 289 294 296 298 300 300 300 304 305 303 301 298 301 295 292 292 289 288 285 281 276 271 268 259 259 255 238 224 217 205 205 200 209
301 301 301 301 300 299 300 299 288 285 292 293 293 295 295 295 302 305 307 307 308 307 306 296 295 295 294 293 292 289 282 273 265 260 257 251 240 227 216 201 202 209 217
297 298 299 298 298 300 300 300 302 300 295 296 297 299 299 302 305 307 308 310 309 309 302 295 295 295 293 292 290 288 285 279 271 261 254 250 242 230 218 211 208 215 222
296 295 293 293 296 296 296 297 299 303 306 305 303 303 304 306 309 309 310 312 307 305 297 295 295 294 293 292 289 288 285 279 266 260 255 249 242 234 226 223 221 223 227
296 292 293 294 293 293 294 296 297 298 300 303 304 305 307 310 310 307 310 306 303 302 301 300 298 295 293 292 288 286 282 276 271 266 257 248 242 237 236 233 232 230 232
292 290 293 294 294 295 295 296 297 298 300 301 302 305 309 309 307 309 310 306 302 300 301 300 297 294 294 292 290 286 280 273 265 258 256 249 243 241 241 239 238 237 236
295 294 294 293 292 294 295 296 297 299 300 300 299 300 304 306 304 304 304 303 302 301 301 300 297 296 293 291 288 284 279 274 269 264 258 252 246 243 243 242 241 241 246
293 292 293 293 293 294 296 297 299 299 299 298 299 301 304 303 298 299 300 300 300 298 298 297 295 293 291 289 288 286 282 275 270 263 257 251 246 245 244 243 243 244 245
292 292 292 292 294 296 298 297 297 297 297 298 298 299 300 300 300 300 300 301 301 299 298 295 294 293 293 287 282 280 280 279 277 273 264 255 248 246 245 246 246 248 249
291 291 293 296 297 297 297 298 298 297 297 297 298 298 298 299 300 300 300 300 299 298 297 296 294 295 296 293 285 279 276 280 277 264 255 255 254 253 252 252 253 253 255
292 293 295 296 297 297 297 297 297 297 297 297 297 297 298 299 299 299 299 299 300 298 299 299 294 294 297 296 292 287 284 280 275 272 257 256 258 258 259 260 261 262 262
295 296 296 296 295 296 296 296 296 297 298 297 297 297 298 299 298 299 299 299 301 301 300 298 296 296 296 293 290 290 289 284 278 274 267 261 263 265 266 266 267 268 268